QPF
0.00 0.00 0.00 0.00 0.00 0.00 0.00 0.00 0.00 0.00 0.00 0.00 0.00 0.01 0.00 0.00 0.02 0.04 0.10 0.07 0.13 0.08 0.05 0.03 0.03 0.02 0.01 0.00 0.00 0.00 0.00 0.00 0.00
0.00 0.00 0.00 0.00 0.00 0.00 0.00 0.00 0.00 0.00 0.00 0.00 0.00 0.01 0.00 0.02 0.08 0.04 0.04 0.17 0.10 0.09 0.11 0.02 0.04 0.01 0.01 0.02 0.01 0.00 0.00 0.00 0.00
0.00 0.00 0.02 0.03 0.00 0.00 0.00 0.00 0.00 0.00 0.00 0.01 0.01 0.00 0.03 0.07 0.05 0.05 0.05 0.07 0.09 0.07 0.01 0.05 0.14 0.09 0.06 0.02 0.03 0.06 0.04 0.00 0.00
0.00 0.00 0.00 0.01 0.01 0.00 0.00 0.00 0.00 0.00 0.00 0.00 0.00 0.00 0.00 0.08 0.07 0.02 0.03 0.07 0.09 0.08 0.03 0.02 0.08 0.12 0.08 0.12 0.10 0.08 0.10 0.05 0.01
0.00 0.00 0.00 0.02 0.04 0.01 0.00 0.00 0.00 0.00 0.00 0.03 0.01 0.02 0.00 0.00 0.03 0.05 0.02 0.01 0.05 0.08 0.08 0.10 0.08 0.04 0.10 0.20 0.02 0.03 0.04 0.04 0.03
0.00 0.00 0.03 0.04 0.05 0.01 0.00 0.00 0.00 0.00 0.00 0.05 0.02 0.06 0.06 0.02 0.05 0.09 0.05 0.02 0.01 0.03 0.05 0.14 0.05 0.09 0.11 0.12 0.10 0.11 0.11 0.04 0.00
0.00 0.00 0.02 0.01 0.01 0.01 0.00 0.00 0.00 0.00 0.00 0.01 0.00 0.03 0.05 0.04 0.00 0.01 0.04 0.02 0.01 0.01 0.02 0.06 0.01 0.01 0.05 0.04 0.02 0.01 0.00 0.01 0.00
0.00 0.00 0.00 0.00 0.00 0.00 0.00 0.00 0.01 0.01 0.01 0.01 0.02 0.05 0.02 0.01 0.00 0.03 0.05 0.03 0.02 0.00 0.00 0.00 0.02 0.01 0.00 0.00 0.02 0.01 0.01 0.00 0.00
0.00 0.00 0.00 0.00 0.00 0.00 0.00 0.00 0.00 0.01 0.03 0.01 0.01 0.01 0.02 0.02 0.01 0.02 0.03 0.00 0.00 0.00 0.00 0.00 0.00 0.01 0.02 0.01 0.01 0.02 0.01 0.00 0.00
0.00 0.00 0.00 0.00 0.00 0.00 0.00 0.01 0.01 0.00 0.01 0.00 0.00 0.01 0.00 0.00 0.00 0.00 0.01 0.00 0.00 0.00 0.00 0.00 0.00 0.00 0.00 0.00 0.00 0.00 0.00 0.00 0.00
0.00 0.00 0.00 0.00 0.00 0.00 0.00 0.01 0.01 0.01 0.01 0.01 0.01 0.01 0.01 0.00 0.00 0.00 0.00 0.00 0.00 0.01 0.00 0.00 0.00 0.00 0.00 0.00 0.00 0.00 0.00 0.00 0.00
0.00 0.00 0.00 0.00 0.00 0.00 0.00 0.02 0.03 0.03 0.01 0.00 0.00 0.01 0.00 0.00 0.00 0.00 0.00 0.00 0.00 0.00 0.00 0.00 0.00 0.00 0.00 0.00 0.00 0.00 0.00 0.00 0.00
0.00 0.00 0.00 0.00 0.00 0.00 0.00 0.00 0.00 0.01 0.01 0.00 0.00 0.01 0.01 0.00 0.00 0.00 0.00 0.00 0.00 0.00 0.00 0.00 0.00 0.00 0.00 0.00 0.00 0.00 0.00 0.00 0.00
0.00 0.00 0.00 0.00 0.00 0.00 0.00 0.00 0.00 0.00 0.00 0.00 0.00 0.00 0.00 0.00 0.00 0.00 0.00 0.00 0.00 0.00 0.00 0.00 0.00 0.00 0.00 0.00 0.00 0.00 0.00 0.00 0.00
0.00 0.00 0.00 0.00 0.00 0.00 0.00 0.00 0.00 0.00 0.00 0.00 0.00 0.00 0.00 0.00 0.00 0.00 0.00 0.00 0.00 0.00 0.00 0.00 0.00 0.00 0.00 0.00 0.00 0.00 0.00 0.00 0.00
0.00 0.00 0.00 0.00 0.00 0.00 0.00 0.00 0.00 0.00 0.00 0.00 0.00 0.00 0.00 0.00 0.00 0.00 0.00 0.00 0.00 0.00 0.00 0.00 0.00 0.00 0.00 0.00 0.00 0.00 0.00 0.00 0.00
0.00 0.00 0.00 0.00 0.00 0.00 0.00 0.00 0.00 0.00 0.00 0.00 0.00 0.00 0.00 0.00 0.00 0.00 0.00 0.00 0.00 0.00 0.00 0.00 0.00 0.00 0.00 0.00 0.00 0.00 0.00 0.00 0.00
0.00 0.00 0.00 0.00 0.00 0.00 0.00 0.00 0.00 0.00 0.00 0.00 0.00 0.00 0.00 0.00 0.00 0.00 0.00 0.00 0.00 0.00 0.00 0.00 0.00 0.00 0.00 0.00 0.00 0.00 0.00 0.00 0.00
0.00 0.00 0.00 0.00 0.00 0.00 0.00 0.00 0.00 0.00 0.00 0.00 0.00 0.00 0.00 0.00 0.00 0.00 0.00 0.00 0.00 0.00 0.00 0.00 0.00 0.00 0.00 0.00 0.00 0.00 0.00 0.00 0.00
0.00 0.00 0.00 0.00 0.00 0.00 0.00 0.00 0.00 0.00 0.00 0.00 0.00 0.00 0.00 0.00 0.00 0.00 0.00 0.00 0.00 0.00 0.00 0.00 0.00 0.00 0.00 0.00 0.00 0.00 0.00 0.00 0.00
MSLP
1010.78 1011.12 1011.47 1012.03 1013.62 1014.79 1015.54 1015.86 1016.76 1018.07 1018.39 1018.91 1019.47 1019.94 1020.27 1020.66 1020.99 1021.02 1021.20 1021.01 1021.07 1021.30 1020.77 1020.85 1020.75 1021.40 1021.49 1021.58 1021.79 1021.86 1022.01 1021.77 1021.77
1010.24 1010.79 1011.31 1012.01 1013.13 1014.24 1015.37 1016.38 1017.25 1017.94 1018.69 1019.00 1019.31 1019.61 1020.10 1020.45 1020.87 1021.03 1020.63 1021.22 1021.21 1021.05 1021.17 1020.20 1021.00 1021.11 1021.31 1021.38 1021.58 1021.72 1021.82 1021.76 1021.95
1010.20 1010.93 1011.67 1012.35 1013.13 1014.38 1015.91 1016.98 1017.49 1017.87 1018.56 1019.30 1019.51 1019.74 1019.71 1020.40 1020.54 1020.78 1020.92 1021.09 1021.19 1021.05 1020.63 1020.78 1021.11 1021.06 1021.10 1021.26 1021.47 1021.77 1021.92 1021.67 1021.75
1012.08 1011.85 1012.62 1013.48 1013.93 1014.38 1015.37 1017.02 1017.90 1018.06 1019.34 1019.70 1019.43 1019.80 1019.97 1020.18 1020.35 1020.30 1020.66 1020.82 1020.89 1020.85 1020.74 1020.77 1021.05 1021.21 1021.20 1021.31 1021.48 1021.54 1021.87 1022.03 1021.88
1014.25 1014.65 1015.05 1015.25 1015.22 1015.60 1016.26 1016.83 1017.94 1018.56 1019.03 1019.43 1019.85 1019.70 1020.26 1020.28 1020.21 1020.33 1020.26 1020.60 1020.62 1020.60 1020.82 1020.87 1020.94 1020.86 1021.16 1021.35 1021.17 1021.23 1021.65 1021.76 1021.61
1014.90 1015.66 1016.13 1016.32 1016.13 1016.34 1016.73 1017.32 1017.88 1018.53 1018.88 1019.37 1019.48 1020.15 1020.11 1020.46 1020.61 1020.39 1020.45 1020.46 1020.37 1020.33 1020.59 1020.82 1020.57 1020.69 1020.86 1020.94 1021.03 1021.13 1021.58 1021.70 1021.65
1015.51 1015.96 1016.47 1016.91 1017.02 1017.04 1017.28 1017.19 1017.37 1018.06 1018.91 1019.17 1019.63 1020.03 1020.38 1020.56 1020.72 1020.64 1020.55 1020.37 1020.35 1020.22 1020.38 1020.59 1020.51 1020.50 1020.58 1020.58 1020.74 1021.08 1021.29 1021.44 1021.55
1015.55 1016.04 1016.53 1017.36 1017.71 1018.02 1018.02 1017.71 1017.70 1017.98 1018.50 1018.93 1019.23 1019.85 1020.53 1020.34 1020.70 1020.74 1020.69 1020.68 1020.69 1020.42 1020.40 1020.32 1020.50 1020.36 1020.41 1020.39 1020.66 1020.98 1021.52 1021.41 1021.35
1015.08 1015.79 1016.58 1017.53 1018.32 1018.68 1018.72 1018.69 1018.66 1018.54 1018.68 1019.02 1019.15 1019.92 1020.30 1020.68 1020.52 1020.97 1021.10 1021.07 1021.02 1020.84 1020.80 1021.03 1020.88 1020.61 1020.60 1020.53 1020.81 1022.36 1022.37 1021.98 1021.11
1015.08 1015.80 1016.79 1017.80 1018.52 1019.03 1019.35 1019.49 1019.43 1019.44 1019.56 1019.73 1020.05 1020.47 1020.87 1021.12 1021.32 1021.25 1021.60 1021.66 1021.84 1021.53 1021.25 1021.32 1021.44 1021.48 1021.41 1022.17 1022.62 1023.39 1022.86 1022.52 1021.49
1015.02 1015.93 1017.06 1017.88 1018.88 1019.54 1020.05 1020.26 1020.30 1020.33 1020.49 1020.55 1020.87 1021.20 1021.65 1021.86 1021.95 1021.90 1022.09 1022.26 1022.10 1022.03 1021.87 1021.63 1021.68 1021.76 1022.16 1022.90 1023.64 1023.85 1023.17 1022.55 1021.69
1014.87 1015.64 1016.65 1017.77 1018.79 1019.88 1020.53 1020.88 1021.15 1021.25 1021.44 1021.60 1021.79 1021.93 1022.10 1022.38 1022.68 1022.48 1022.47 1022.22 1022.10 1021.91 1021.83 1022.10 1022.04 1022.21 1022.78 1023.34 1024.06 1024.17 1023.50 1022.44 1021.54
1015.45 1016.21 1016.90 1017.79 1019.33 1020.30 1020.92 1021.47 1021.76 1022.05 1022.50 1022.73 1022.99 1023.12 1023.08 1023.09 1023.14 1023.11 1023.15 1023.06 1023.02 1022.66 1022.53 1022.27 1022.10 1022.63 1023.41 1023.84 1024.26 1024.99 1024.19 1023.36 1022.27
1016.33 1017.05 1017.85 1018.82 1019.67 1020.52 1021.27 1021.77 1022.17 1022.52 1022.99 1023.39 1023.72 1023.83 1023.90 1023.85 1023.79 1023.72 1023.61 1023.51 1023.35 1023.05 1022.59 1022.65 1022.89 1023.12 1023.71 1024.03 1024.56 1025.12 1025.05 1024.64 1024.22
1017.11 1017.86 1018.78 1019.53 1020.27 1021.12 1021.82 1022.17 1022.25 1022.90 1023.36 1023.82 1023.88 1023.98 1024.11 1024.29 1024.00 1023.82 1023.85 1023.92 1023.82 1023.48 1023.40 1023.31 1023.34 1023.66 1023.65 1023.98 1024.31 1025.30 1025.43 1025.04 1024.91
1017.43 1018.31 1019.09 1019.54 1020.16 1020.78 1021.39 1021.97 1022.58 1023.14 1023.73 1023.83 1024.00 1024.05 1024.11 1024.10 1024.04 1024.01 1024.02 1023.98 1024.13 1024.00 1023.95 1023.65 1023.96 1023.65 1023.55 1023.89 1024.27 1024.49 1025.20 1025.21 1025.00
1017.57 1018.31 1018.93 1019.27 1019.96 1020.69 1021.32 1021.75 1022.04 1022.51 1023.31 1023.50 1023.59 1023.95 1024.12 1024.11 1023.82 1024.02 1024.09 1023.91 1024.02 1023.95 1024.08 1024.18 1024.11 1024.04 1024.14 1024.39 1024.59 1025.19 1025.31 1025.08 1024.10
1017.51 1018.18 1018.72 1019.32 1019.78 1020.43 1021.26 1021.86 1022.31 1022.72 1023.17 1023.42 1023.41 1023.59 1023.82 1023.77 1023.80 1023.75 1024.29 1024.63 1025.16 1025.00 1025.96 1026.20 1025.19 1024.92 1024.80 1024.82 1024.87 1026.28 1026.98 1026.71 1026.24
1017.56 1018.11 1018.71 1019.35 1019.74 1020.27 1021.06 1021.66 1022.22 1022.75 1023.13 1023.26 1023.28 1023.36 1023.36 1023.33 1023.22 1023.49 1023.70 1024.35 1025.55 1026.84 1026.95 1027.19 1027.16 1027.11 1026.74 1026.18 1027.08 1027.25 1027.11 1026.91 1026.53
1018.03 1018.53 1019.09 1019.42 1019.83 1020.31 1021.01 1021.71 1022.24 1022.78 1023.03 1023.25 1023.41 1023.24 1023.29 1023.19 1023.54 1023.13 1023.51 1023.87 1024.19 1025.41 1027.35 1027.52 1027.49 1027.52 1027.47 1027.43 1027.53 1027.16 1026.81 1026.46 1026.30
Thickness
5794 5795 5799 5798 5787 5781 5779 5784 5779 5768 5769 5768 5767 5766 5765 5765 5764 5764 5764 5767 5767 5766 5771 5771 5773 5769 5770 5771 5771 5771 5770 5773 5774
5797 5797 5799 5797 5794 5791 5785 5777 5773 5766 5762 5765 5766 5767 5766 5764 5762 5761 5767 5763 5765 5768 5767 5776 5771 5771 5771 5772 5771 5772 5771 5773 5772
5801 5798 5796 5794 5794 5787 5777 5771 5769 5768 5766 5759 5761 5764 5767 5762 5763 5762 5762 5762 5762 5764 5768 5769 5768 5770 5771 5770 5770 5768 5768 5773 5773
5780 5790 5786 5783 5783 5787 5782 5769 5763 5760 5754 5755 5759 5760 5761 5761 5762 5765 5762 5760 5762 5762 5764 5766 5766 5766 5768 5768 5767 5767 5768 5768 5770
5759 5761 5760 5764 5771 5771 5766 5766 5760 5755 5752 5747 5752 5757 5755 5756 5760 5760 5762 5759 5760 5760 5760 5760 5762 5765 5765 5766 5769 5768 5766 5767 5770
5753 5751 5751 5752 5759 5761 5760 5756 5754 5752 5752 5752 5752 5749 5751 5750 5750 5754 5755 5757 5759 5760 5760 5757 5760 5761 5763 5765 5767 5768 5765 5766 5767
5743 5747 5747 5745 5746 5750 5751 5755 5755 5752 5748 5748 5746 5745 5742 5742 5742 5746 5749 5753 5755 5758 5758 5756 5758 5760 5762 5764 5766 5767 5767 5766 5765
5739 5743 5745 5740 5738 5737 5740 5745 5749 5749 5745 5744 5744 5739 5736 5740 5739 5741 5742 5743 5745 5749 5751 5754 5755 5758 5760 5762 5763 5765 5762 5764 5763
5737 5738 5739 5735 5730 5730 5731 5734 5737 5742 5743 5741 5742 5735 5733 5732 5738 5732 5731 5733 5735 5739 5740 5741 5745 5750 5752 5757 5760 5748 5749 5753 5761
5730 5732 5730 5725 5723 5723 5724 5725 5728 5729 5729 5730 5728 5726 5726 5725 5725 5724 5721 5723 5722 5727 5730 5732 5733 5735 5740 5737 5738 5735 5740 5743 5754
5723 5722 5717 5717 5713 5713 5713 5713 5715 5718 5719 5719 5717 5716 5713 5713 5713 5714 5714 5714 5715 5716 5718 5722 5723 5724 5725 5724 5722 5723 5731 5736 5745
5718 5718 5716 5711 5708 5703 5701 5701 5701 5703 5705 5706 5705 5706 5705 5704 5703 5704 5705 5708 5711 5714 5714 5713 5715 5716 5713 5712 5709 5712 5719 5730 5739
5705 5705 5705 5702 5693 5689 5688 5687 5688 5689 5686 5687 5687 5689 5691 5693 5693 5695 5694 5696 5697 5702 5705 5708 5711 5707 5702 5701 5702 5697 5705 5710 5724
5690 5688 5686 5684 5682 5677 5674 5674 5673 5674 5673 5671 5672 5673 5675 5679 5680 5682 5685 5687 5689 5693 5699 5700 5698 5698 5694 5693 5693 5689 5691 5693 5696
5671 5669 5666 5666 5663 5660 5658 5660 5663 5659 5659 5659 5661 5662 5664 5665 5670 5674 5675 5676 5679 5684 5686 5688 5687 5686 5688 5687 5686 5681 5681 5684 5685
5659 5655 5652 5655 5654 5653 5652 5650 5648 5646 5644 5647 5650 5652 5654 5657 5660 5662 5664 5667 5668 5671 5673 5678 5675 5680 5682 5680 5679 5678 5674 5675 5676
5648 5646 5644 5646 5644 5641 5638 5639 5640 5639 5636 5638 5640 5640 5641 5645 5651 5651 5653 5657 5660 5663 5664 5666 5669 5670 5670 5669 5670 5666 5665 5666 5672
5638 5636 5635 5634 5632 5630 5626 5625 5624 5624 5624 5626 5628 5629 5630 5633 5635 5639 5637 5639 5641 5646 5639 5640 5653 5654 5657 5659 5663 5650 5645 5648 5651
5628 5625 5623 5620 5619 5618 5615 5613 5611 5610 5610 5612 5614 5616 5619 5624 5625 5626 5628 5627 5624 5617 5618 5619 5622 5624 5629 5634 5630 5629 5632 5635 5638
5614 5612 5609 5607 5606 5606 5602 5599 5597 5595 5595 5596 5597 5601 5604 5607 5606 5613 5612 5615 5620 5615 5600 5600 5603 5605 5607 5609 5610 5614 5618 5622 5624